S-NET B

Last updated on Fri Dec 29 2023 00:03:02 GMT+0000 (Coordinated Universal Time)

1 43187U 18014H 23362.27016745 .00005545 00000+0 42299-3 0 9992 2 43187 97.6079 262.2108 0011164 219.8841 140.1564 15.02366152322672
UTC large
Height (km)
Speed (km/s)
/
Latitude / Longitude
Inclination (degrees)
Orbital Period (minutes)
Azimuth
Elevation
Range (km)
Doppler Factor

Next 0 passes for location: London (51.5072 / 0.1276)

Sorry there are no passes over London.
S-NET B